Content
SEND FEEDBACK

Daily
Averages
Monthly
Summary
United States of America

MODOC, ILLINOIS


Home > North America > United States > Illinois
Elevation: 380 feet     Latitude: 37 59N     Longitude: 089 57W

WEATHER
 
SELECT A DAY
Number of Records: 321,889;   Date Range: 7/17/01 - 4/14/14
 
SHARE

PRINT THIS DATA

[ ← Previous Day ]
WEATHER ALMANAC - JANUARY 31, 2013
[ Next Day → ]
[ °C ]   °F
Weather ElementAverageHighLow
Temperature27.6 °F37.4 °F (1:55 pm)14 °F (11:55 pm)
Dewpoint18.1 °F30.2 °F (3:15 pm)-0.4 °F (10:55 pm)
Humidity68 %93 % (4:15 pm)49 % (10:15 pm)
Barometer30.08 in30.37 in (11:55 pm)29.94 in (12:35 am)
Wind Speed13.8 mph23 mph (4:55 pm)
Wind Gust33.4 mph (10:15 pm)
Weather ElementAverage
Visibility9.7 mi
Wind DirectionW (274.5 °)

Weather ElementTotal
Precipitation---
Heating Degree Days39.3 (Base 65)
Averaged from 71 records on January 31, 2013
WEATHER CONDITIONS BREAKOUT
WIND DIRECTION BREAKOUT
WEATHER BY HOUR - JANUARY 31, 2013
[ °C ]   °F
Local TimeTemperatureDewpointHumidityBarometerVisibilityWind DirectionWind SpeedGust SpeedPrecipitationEventsConditions
12:35 AM28.4 °F21.2 °F74 %29.94 in10.0 miWest (270°)15.0 mph18.4 mphOvercast
12:55 AM28.4 °F19.4 °F69 %29.94 in10.0 miWest (280°)13.8 mph25.3 mphOvercast
1:15 AM28.4 °F21.2 °F74 %29.95 in10.0 miWest (270°)12.7 mph19.6 mphOvercast
1:35 AM28.4 °F21.2 °F74 %29.95 in10.0 miWest (280°)12.7 mph18.4 mphOvercast
1:55 AM28.4 °F21.2 °F74 %29.95 in10.0 miWest (270°)18.4 mph25.3 mphOvercast
2:15 AM28.4 °F19.4 °F69 %29.96 in10.0 miWest (270°)16.1 mph28.8 mphOvercast
2:35 AM28.4 °F19.4 °F69 %29.96 in10.0 miWest (280°)11.5 mph20.7 mphOvercast
2:55 AM28.4 °F19.4 °F69 %29.95 in10.0 miWest (270°)12.7 mph23.0 mphOvercast
3:15 AM28.4 °F19.4 °F69 %29.95 in10.0 miWest (280°)15.0 mph19.6 mphOvercast
3:35 AM28.4 °F17.6 °F64 %29.95 in10.0 miWest (270°)13.8 mph21.9 mphOvercast
3:55 AM28.4 °F19.4 °F69 %29.96 in10.0 miWest (270°)13.8 mph19.6 mphOvercast
4:15 AM28.4 °F19.4 °F69 %29.97 in10.0 miWest (270°)15.0 mph20.7 mphOvercast
4:35 AM28.4 °F19.4 °F69 %29.96 in10.0 miWest (280°)13.8 mph21.9 mphOvercast
4:55 AM28.4 °F19.4 °F69 %29.96 in10.0 miWest (260°)12.7 mph17.3 mphOvercast
5:15 AM28.4 °F21.2 °F74 %29.97 in10.0 miWest (260°)10.4 mphOvercast
5:35 AM28.4 °F21.2 °F74 %29.97 in10.0 miWest (260°)9.2 mphOvercast
5:55 AM28.4 °F21.2 °F74 %29.97 in10.0 miWest (260°)13.8 mph18.4 mphOvercast
6:15 AM28.4 °F21.2 °F74 %29.98 in10.0 miWest (260°)8.1 mphOvercast
6:35 AM28.4 °F21.2 °F74 %29.99 in10.0 miWSW (250°)8.1 mphOvercast
6:55 AM28.4 °F21.2 °F74 %30.00 in10.0 miWSW (250°)9.2 mphOvercast
7:15 AM28.4 °F21.2 °F74 %30.00 in10.0 miWSW (250°)8.1 mphOvercast
7:35 AM28.4 °F21.2 °F74 %30.01 in10.0 miWSW (250°)9.2 mph16.1 mphOvercast
7:55 AM28.4 °F21.2 °F74 %30.01 in10.0 miWest (260°)11.5 mph17.3 mphOvercast
8:15 AM28.4 °F21.2 °F74 %30.02 in10.0 miWSW (250°)8.1 mphOvercast
8:35 AM28.4 °F21.2 °F74 %30.04 in10.0 miWest (260°)8.1 mphOvercast
8:55 AM30.2 °F21.2 °F69 %30.04 in10.0 miWSW (250°)10.4 mphOvercast
9:15 AM30.2 °F21.2 °F69 %30.05 in10.0 miWSW (250°)6.9 mphOvercast
9:35 AM30.2 °F19.4 °F64 %30.05 in10.0 miWest (260°)10.4 mphOvercast
9:55 AM30.2 °F19.4 °F64 %30.06 in10.0 miWSW (250°)9.2 mphOvercast
10:15 AM30.2 °F19.4 °F64 %30.07 in10.0 miWSW (240°)10.4 mphOvercast
10:35 AM30.2 °F21.2 °F69 %30.07 in10.0 miWSW (240°)9.2 mphMostly Cloudy
10:55 AM32.0 °F19.4 °F60 %30.06 in10.0 miWSW (240°)9.2 mph17.3 mphMostly Cloudy
11:15 AM32.0 °F19.4 °F60 %30.05 in10.0 miWSW (240°)10.4 mphMostly Cloudy
11:35 AM33.8 °F21.2 °F60 %30.04 in10.0 miWSW (240°)11.5 mph18.4 mphMostly Cloudy
11:55 AM33.8 °F21.2 °F60 %30.03 in10.0 miWest (260°)11.5 mph18.4 mphScattered Clouds
12:15 PM35.6 °F21.2 °F56 %30.03 in10.0 miWSW (250°)11.5 mph17.3 mphMostly Cloudy
12:35 PM35.6 °F19.4 °F52 %30.02 in10.0 miWest (270°)11.5 mph17.3 mphMostly Cloudy
12:55 PM35.6 °F21.2 °F56 %30.01 in10.0 miWest (270°)8.1 mphOvercast
1:15 PM35.6 °F21.2 °F56 %30.00 in10.0 miWest (270°)11.5 mph17.3 mphMostly Cloudy
1:35 PM35.6 °F21.2 °F56 %30.00 in10.0 miWSW (250°)10.4 mphScattered Clouds
1:55 PM37.4 °F23.0 °F56 %30.00 in10.0 miWest (280°)9.2 mph17.3 mphScattered Clouds
2:15 PM35.6 °F21.2 °F56 %30.01 in10.0 miWest (270°)9.2 mphScattered Clouds
2:35 PM35.6 °F23.0 °F60 %30.01 in10.0 miWest (280°)16.1 mph21.9 mphScattered Clouds
2:55 PM35.6 °F28.4 °F75 %30.02 in10.0 miWest (280°)16.1 mph23.0 mphMostly Cloudy
3:15 PM33.8 °F30.2 °F87 %30.04 in7.0 miWest (280°)18.4 mph23.0 mphSnowLight Snow
3:35 PM33.8 °F30.2 °F87 %30.05 in7.0 miWest (270°)18.4 mph25.3 mphSnowLight Snow
3:55 PM33.8 °F30.2 °F87 %30.05 in10.0 miWest (270°)18.4 mph25.3 mphSnowLight Snow
4:15 PM32.0 °F30.2 °F93 %30.06 in10.0 miWest (270°)16.1 mph26.5 mphMostly Cloudy
4:35 PM32.0 °F28.4 °F87 %30.07 in7.0 miWest (280°)17.3 mph26.5 mphSnowLight Snow
4:55 PM30.2 °F28.4 °F93 %30.08 in3.0 miWest (270°)23.0 mph32.2 mphSnowLight Snow
5:15 PM28.4 °F26.6 °F93 %30.10 in1.5 miWNW (290°)20.7 mph31.1 mphSnowLight Snow
5:35 PM28.4 °F24.8 °F86 %30.12 in10.0 miWNW (300°)16.1 mph25.3 mphSnowLight Snow
5:55 PM24.8 °F15.8 °F69 %30.15 in10.0 miNW (310°)16.1 mph27.6 mphOvercast
6:15 PM24.8 °F14.0 °F64 %30.16 in10.0 miWNW (300°)15.0 mph26.5 mphOvercast
6:35 PM23.0 °F15.8 °F74 %30.18 in10.0 miWNW (300°)17.3 mph27.6 mphScattered Clouds
6:55 PM21.2 °F15.8 °F80 %30.19 in10.0 miNW (310°)16.1 mph24.2 mphClear
7:15 PM21.2 °F12.2 °F68 %30.21 in10.0 miNW (310°)16.1 mph25.3 mphClear
7:35 PM21.2 °F8.6 °F58 %30.22 in10.0 miWNW (290°)12.7 mph21.9 mphClear
7:55 PM19.4 °F6.8 °F58 %30.23 in10.0 miWNW (300°)18.4 mph29.9 mphClear
8:15 PM19.4 °F6.8 °F58 %30.25 in10.0 miWNW (300°)18.4 mph26.5 mphClear
8:35 PM19.4 °F6.8 °F58 %30.26 in10.0 miWNW (300°)20.7 mph25.3 mphScattered Clouds
8:55 PM19.4 °F6.8 °F58 %30.27 in10.0 miNW (310°)15.0 mph28.8 mphScattered Clouds
9:15 PM19.4 °F8.6 °F63 %30.28 in10.0 miWNW (300°)15.0 mph20.7 mphMostly Cloudy
9:35 PM17.6 °F8.6 °F68 %30.29 in10.0 miWNW (300°)15.0 mph25.3 mphOvercast
9:55 PM17.6 °F8.6 °F68 %30.31 in10.0 miNW (310°)16.1 mph25.3 mphMostly Cloudy
10:15 PM17.6 °F1.4 °F49 %30.31 in10.0 miWNW (290°)19.6 mph33.4 mphScattered Clouds
10:35 PM17.6 °F1.4 °F49 %30.33 in10.0 miWNW (300°)19.6 mph29.9 mphClear
10:55 PM15.8 °F-0.4 °F49 %30.34 in10.0 miWNW (300°)20.7 mph27.6 mphClear
11:15 PM15.8 °F1.4 °F53 %30.35 in10.0 miNW (310°)16.1 mph26.5 mphClear
11:35 PM15.8 °F1.4 °F53 %30.36 in10.0 miWNW (300°)19.6 mph26.5 mphClear
11:55 PM14.0 °F3.2 °F62 %30.37 in10.0 miWNW (300°)17.3 mph25.3 mphClear
Hourly data recorded from KSAR, located 17.82 miles away from Modoc, Illinois







STORIES FROM OUR PARTNERS